User: anonymous   Login
Location: Mt. Cuba Astronomical Observatory
(39.8100°N, 75.6300°W)
Time: 20:12:15
(UTC-04:00)
Language:

Cosmos 2058 - Orbit

View from above orbital plane
View from above orbital plane
View from above satellite
View from above satellite

Ground track
Ground track

The orbit data is extracted from the following two-line orbital elements,

1 20465U 90010A   15124.83111236  .00001597  00000-0  13855-3 0  9992
2 20465 082.4893 271.8347 0016427 026.2279 333.9771 14.96340002369485
Epoch (UTC): 04 May 2015 19:56:48
Eccentricity: 0.0016427
inclination: 82.4893°
perigee height: 567 km
apogee height: 589 km
right ascension of ascending node: 271.8347°
argument of perigee: 26.2279°
revolutions per day: 14.96340002
mean anomaly at epoch: 333.9771°
orbit number at epoch: 36948

The dashed part of the orbit path shows where the satellite is in the earth's shadow,  

DLR